Starlink 11088

operational
NORAD ID: 59709 Int'l Des: 2024-088 Owner: SPXS Country: US Constellation: starlink
LEOCIRCULAR

Über Starlink 11088

Beschreibung wird geladen...

Live-Position

3D-Globus wird geladen...

Nächste Überflüge

Höhenverlauf

Altitude vs Time

uPlot chart will show altitude changes over time

Zweizeiliger Elementsatz

1 59709U 24088B 26034.53475500 -.00033974 00000-0 -27712-3 0 9996
2 59709 53.1584 134.9518 0002014 50.7718 309.3479 15.69671095100908
Epoch: 3. Feb. 2026 • Age: 24 hours

Aktueller Status

Höhe 366.0 km
Geschwindigkeit 7.69 km/s
Subsatellitenpunkt -17.50°S, 0.22°W
Startdatum 10. Mai 2024
Alter 1.7 years
Typ internet

Technische Details

Klassifizierung Payload
Masse 960.00 kg
Trockenmasse 910.00 kg
Gesamtmasse 960.00 kg
Länge 0.30 m
Durchmesser 4.10 m
Spannweite 29.00 m
Form Box + pan
Hersteller SPXS
Bus-Typ Starlink V2MD
Phasenstatus In Orbit
Besitzer/Staat SPXS/US

Große Konstellationen

Loading constellations...